UAE108 VOBL-OMDB

Flight info

Callsign UAE108
Flight time N/A
Altitude 40000
Route OPAMO7B OPAMO P574 PAROK Q899 ITURA M762 VAXAS/N0373F240 M762 MIVEK P574 IMPED
Aircraft A359/H-SDE3GHIJ2J3J5M1RVWXY/LB2D1

Departure

Time 2026-04-29 09:12
Airport Kempegowda International Airport Bengaluru (VOBL)

Arrival

Time N/A
Airport Dubai International Airport (OMDB)
Time Latitude Longitude Altitude Speed Heading
2026-04-29 09:12 13.24820 77.61803 5632 ft 277 kts 301°
2026-04-29 09:12 13.25698 77.60248 6152 ft 275 kts 301°
2026-04-29 09:13 13.28048 77.55964 6999 ft 290 kts 301°
2026-04-29 09:13 13.29216 77.53970 6982 ft 289 kts 311°
2026-04-29 09:14 13.33215 77.52491 6998 ft 278 kts 12°
2026-04-29 09:14 13.35348 77.53394 6989 ft 276 kts 32°
2026-04-29 09:14 13.36023 77.53814 6975 ft 277 kts 33°
2026-04-29 09:14 13.37652 77.54839 7012 ft 277 kts 33°
2026-04-29 09:15 13.39277 77.55849 7027 ft 277 kts 32°
2026-04-29 09:15 13.40925 77.56859 7129 ft 278 kts 32°
2026-04-29 09:15 13.42589 77.57870 7613 ft 280 kts 32°
2026-04-29 09:15 13.44243 77.58871 8051 ft 282 kts 32°
2026-04-29 09:16 13.45949 77.59896 8546 ft 284 kts 32°
2026-04-29 09:16 13.47661 77.60928 9027 ft 287 kts 31°
2026-04-29 09:16 13.49379 77.61962 9497 ft 289 kts 31°
2026-04-29 09:16 13.51165 77.62882 9966 ft 293 kts 18°
2026-04-29 09:17 13.53185 77.63088 10450 ft 299 kts 354°
2026-04-29 09:17 13.55142 77.62490 10938 ft 303 kts 336°
2026-04-29 09:17 13.56969 77.61551 11409 ft 306 kts 334°
2026-04-29 09:17 13.58772 77.60608 11873 ft 308 kts 334°
2026-04-29 09:18 13.60687 77.59610 12364 ft 311 kts 335°
2026-04-29 09:18 13.62630 77.58605 12861 ft 313 kts 335°
2026-04-29 09:18 13.64590 77.57600 13354 ft 315 kts 334°
2026-04-29 09:18 13.66533 77.56603 13776 ft 320 kts 335°
2026-04-29 09:19 13.68568 77.55562 13963 ft 333 kts 334°
2026-04-29 09:19 13.70724 77.54461 13965 ft 353 kts 334°
2026-04-29 09:19 13.72973 77.53314 13960 ft 370 kts 334°
2026-04-29 09:19 13.75336 77.52107 13957 ft 387 kts 334°
2026-04-29 09:20 13.77750 77.50873 13954 ft 395 kts 334°
2026-04-29 09:20 13.80061 77.49693 13952 ft 397 kts 334°
2026-04-29 09:20 13.82435 77.48481 14200 ft 396 kts 334°
2026-04-29 09:20 13.84860 77.47245 14889 ft 390 kts 334°
2026-04-29 09:21 13.87141 77.46080 15460 ft 387 kts 334°
2026-04-29 09:21 13.89565 77.44841 16057 ft 383 kts 334°
2026-04-29 09:21 13.91935 77.43631 16642 ft 380 kts 333°
2026-04-29 09:21 13.94272 77.42437 17228 ft 376 kts 333°
2026-04-29 09:22 13.96594 77.41249 17763 ft 374 kts 333°
2026-04-29 09:22 13.98899 77.40070 18232 ft 374 kts 333°
2026-04-29 09:22 14.01225 77.38877 18471 ft 381 kts 333°
2026-04-29 09:22 14.03596 77.37663 18718 ft 387 kts 333°
2026-04-29 09:23 14.06015 77.36425 18959 ft 393 kts 332°
2026-04-29 09:23 14.08428 77.35188 19200 ft 398 kts 333°
2026-04-29 09:23 14.10853 77.33940 19434 ft 404 kts 332°
2026-04-29 09:23 14.13347 77.32654 19674 ft 409 kts 332°
2026-04-29 09:24 14.15910 77.31335 19924 ft 413 kts 332°
2026-04-29 09:24 14.18440 77.30036 20159 ft 418 kts 332°
2026-04-29 09:24 14.21044 77.28700 20403 ft 422 kts 332°
2026-04-29 09:24 14.23660 77.27358 20651 ft 426 kts 332°
2026-04-29 09:25 14.26340 77.25982 20896 ft 430 kts 332°
2026-04-29 09:25 14.29018 77.24609 21143 ft 434 kts 332°
2026-04-29 09:25 14.31712 77.23226 21394 ft 437 kts 332°
2026-04-29 09:25 14.34448 77.21822 21640 ft 440 kts 332°
2026-04-29 09:26 14.37167 77.20427 21895 ft 443 kts 331°
2026-04-29 09:26 14.39895 77.19027 22145 ft 445 kts 331°
2026-04-29 09:26 14.42641 77.17615 22392 ft 447 kts 331°
2026-04-29 09:26 14.45313 77.16242 22646 ft 449 kts 331°
2026-04-29 09:27 14.47913 77.14905 22876 ft 450 kts 331°
2026-04-29 09:27 14.50871 77.13384 23145 ft 452 kts 331°
2026-04-29 09:27 14.53662 77.11948 23407 ft 452 kts 331°
2026-04-29 09:27 14.56429 77.10352 23638 ft 451 kts 323°
2026-04-29 09:28 14.58834 77.08293 23886 ft 449 kts 313°
2026-04-29 09:28 14.60798 77.05853 24137 ft 448 kts 303°
2026-04-29 09:28 14.62372 77.03053 24387 ft 446 kts 297°
2026-04-29 09:28 14.63793 77.00230 24632 ft 447 kts 296°
2026-04-29 09:29 14.65202 76.97389 24865 ft 447 kts 296°
2026-04-29 09:29 14.68021 76.91720 25361 ft 447 kts 296°
2026-04-29 09:29 14.69440 76.88878 25593 ft 446 kts 296°
2026-04-29 09:30 14.70877 76.86007 25844 ft 446 kts 297°
2026-04-29 09:30 14.72287 76.83195 26087 ft 445 kts 297°
2026-04-29 09:30 14.73720 76.80335 26330 ft 444 kts 297°
2026-04-29 09:30 14.75122 76.77537 26568 ft 443 kts 297°
2026-04-29 09:31 14.76548 76.74696 26808 ft 443 kts 297°
2026-04-29 09:31 14.77956 76.71888 27046 ft 443 kts 297°
2026-04-29 09:31 14.79365 76.69077 27297 ft 442 kts 297°
2026-04-29 09:31 14.80776 76.66259 27538 ft 441 kts 297°
2026-04-29 09:32 14.82166 76.63480 27779 ft 440 kts 297°
2026-04-29 09:32 14.83544 76.60728 28020 ft 439 kts 297°
2026-04-29 09:32 14.84948 76.57921 28262 ft 438 kts 297°
2026-04-29 09:32 14.86339 76.55144 28497 ft 437 kts 297°
2026-04-29 09:33 14.87729 76.52364 28741 ft 436 kts 297°
2026-04-29 09:33 14.89108 76.49604 28993 ft 435 kts 297°
2026-04-29 09:33 14.91920 76.43971 28977 ft 450 kts 297°
2026-04-29 09:34 14.94831 76.38135 29195 ft 463 kts 297°
2026-04-29 09:34 14.96313 76.35164 29448 ft 466 kts 297°
2026-04-29 09:34 14.97790 76.32192 29683 ft 470 kts 297°
2026-04-29 09:35 14.99283 76.29182 29929 ft 473 kts 296°
2026-04-29 09:35 15.00800 76.26125 30175 ft 476 kts 296°
2026-04-29 09:35 15.02309 76.23089 30420 ft 479 kts 296°
2026-04-29 09:35 15.03838 76.20014 30670 ft 481 kts 296°
2026-04-29 09:36 15.05369 76.16938 30918 ft 483 kts 296°
2026-04-29 09:36 15.06891 76.13877 31157 ft 485 kts 296°
2026-04-29 09:36 15.08442 76.10760 31397 ft 486 kts 296°
2026-04-29 09:36 15.09997 76.07636 31641 ft 487 kts 297°
2026-04-29 09:37 15.11532 76.04569 31901 ft 488 kts 297°
2026-04-29 09:37 15.13093 76.01457 32157 ft 488 kts 297°
2026-04-29 09:37 15.14657 75.98359 32533 ft 486 kts 297°
2026-04-29 09:37 15.16277 75.95264 32937 ft 485 kts 298°
2026-04-29 09:38 15.17888 75.92217 33354 ft 484 kts 298°
2026-04-29 09:38 15.19499 75.89173 33761 ft 482 kts 298°
2026-04-29 09:38 15.21096 75.86146 34176 ft 481 kts 298°
2026-04-29 09:38 15.22694 75.83110 34402 ft 482 kts 298°
2026-04-29 09:39 15.25874 75.77059 34412 ft 482 kts 298°
2026-04-29 09:39 15.29092 75.70915 34533 ft 484 kts 298°
2026-04-29 09:40 15.30693 75.67857 34666 ft 484 kts 298°
2026-04-29 09:40 15.32276 75.64831 34805 ft 483 kts 298°
2026-04-29 09:40 15.33868 75.61788 34940 ft 484 kts 298°
2026-04-29 09:40 15.35454 75.58751 35080 ft 484 kts 298°
2026-04-29 09:41 15.37021 75.55753 35214 ft 484 kts 298°
2026-04-29 09:41 15.38608 75.52717 35361 ft 484 kts 298°
2026-04-29 09:41 15.40201 75.49667 35499 ft 484 kts 298°
2026-04-29 09:41 15.41772 75.46656 35628 ft 483 kts 298°
2026-04-29 09:42 15.43371 75.43590 35772 ft 483 kts 299°
2026-04-29 09:42 15.44925 75.40610 35911 ft 483 kts 298°
2026-04-29 09:42 15.46508 75.37574 36044 ft 483 kts 299°
2026-04-29 09:42 15.48104 75.34512 36185 ft 483 kts 298°
2026-04-29 09:43 15.49697 75.31437 36310 ft 483 kts 298°
2026-04-29 09:43 15.51276 75.28386 36452 ft 483 kts 298°
2026-04-29 09:43 15.52857 75.25334 36601 ft 482 kts 299°
2026-04-29 09:43 15.54434 75.22295 36728 ft 482 kts 299°
2026-04-29 09:44 15.56032 75.19220 36896 ft 482 kts 298°
2026-04-29 09:44 15.57600 75.16202 37009 ft 481 kts 299°
2026-04-29 09:44 15.59182 75.13152 37142 ft 481 kts 299°
2026-04-29 09:44 15.60773 75.10087 37302 ft 481 kts 299°
2026-04-29 09:45 15.62356 75.07039 37448 ft 481 kts 299°
2026-04-29 09:45 15.63935 75.03996 37597 ft 480 kts 299°
2026-04-29 09:45 15.65519 75.00944 37699 ft 480 kts 299°
2026-04-29 09:45 15.67092 74.97903 37826 ft 480 kts 300°
2026-04-29 09:46 15.68676 74.94850 37990 ft 479 kts 299°
2026-04-29 09:46 15.70240 74.91833 38125 ft 479 kts 299°
2026-04-29 09:46 15.71817 74.88787 38294 ft 478 kts 299°
2026-04-29 09:46 15.73394 74.85741 38446 ft 478 kts 300°
2026-04-29 09:47 15.74939 74.82757 38635 ft 477 kts 300°
2026-04-29 09:47 15.76522 74.79693 38768 ft 476 kts 300°
2026-04-29 09:47 15.78069 74.76700 38942 ft 475 kts 300°
2026-04-29 09:47 15.79640 74.73661 39071 ft 474 kts 300°
2026-04-29 09:48 15.81178 74.70682 39252 ft 474 kts 300°
2026-04-29 09:48 15.82728 74.67685 39417 ft 473 kts 300°
2026-04-29 09:48 15.84279 74.64682 39601 ft 472 kts 300°
2026-04-29 09:48 15.85824 74.61685 39752 ft 470 kts 300°
2026-04-29 09:49 15.87318 74.58674 39921 ft 470 kts 299°
2026-04-29 09:49 15.88790 74.55627 39944 ft 471 kts 298°
2026-04-29 09:49 15.91709 74.49569 39962 ft 473 kts 299°
2026-04-29 09:50 15.94677 74.43427 39955 ft 475 kts 299°
2026-04-29 09:50 15.97652 74.37283 39958 ft 477 kts 298°
2026-04-29 09:51 16.00615 74.31139 39954 ft 478 kts 298°
2026-04-29 09:51 16.03589 74.24957 39950 ft 479 kts 298°
2026-04-29 09:52 16.06584 74.18752 39941 ft 483 kts 298°
2026-04-29 09:52 16.09592 74.12515 39928 ft 486 kts 298°
2026-04-29 09:53 16.12634 74.06253 39927 ft 488 kts 299°
2026-04-29 09:53 16.15712 73.99910 39929 ft 490 kts 298°
2026-04-29 09:54 16.18763 73.93571 39905 ft 493 kts 298°
2026-04-29 09:54 16.21833 73.87197 39879 ft 494 kts 299°
2026-04-29 09:55 16.24905 73.80845 39848 ft 496 kts 299°
2026-04-29 09:55 16.28008 73.74416 39796 ft 498 kts 299°
2026-04-29 09:56 16.31113 73.67971 39784 ft 498 kts 299°
2026-04-29 09:56 16.34211 73.61536 39816 ft 499 kts 299°
2026-04-29 09:57 16.37313 73.55097 39792 ft 499 kts 299°
2026-04-29 09:57 16.40488 73.48698 39815 ft 498 kts 300°
2026-04-29 09:58 16.43673 73.42313 39800 ft 498 kts 300°
2026-04-29 09:58 16.46843 73.35930 39807 ft 497 kts 300°
2026-04-29 09:59 16.50004 73.29529 39804 ft 498 kts 299°
2026-04-29 09:59 16.53164 73.23117 39776 ft 498 kts 299°
2026-04-29 10:00 16.56326 73.16719 39795 ft 498 kts 299°
2026-04-29 10:00 16.59453 73.10387 39769 ft 499 kts 299°
2026-04-29 10:01 16.62483 73.04054 39788 ft 498 kts 298°
2026-04-29 10:01 16.65539 72.97603 39779 ft 498 kts 298°
2026-04-29 10:02 16.68563 72.91228 39770 ft 497 kts 299°
2026-04-29 10:02 16.71621 72.84785 39790 ft 498 kts 298°
2026-04-29 10:03 16.74683 72.78328 39779 ft 498 kts 299°
2026-04-29 10:03 16.77725 72.71914 39784 ft 498 kts 299°
2026-04-29 10:04 16.80800 72.65423 39804 ft 498 kts 298°
2026-04-29 10:04 16.83862 72.58952 39798 ft 498 kts 298°
2026-04-29 10:05 16.86910 72.52507 39779 ft 498 kts 299°
2026-04-29 10:05 16.89950 72.46069 39801 ft 498 kts 299°
2026-04-29 10:06 16.93023 72.39555 39795 ft 498 kts 299°
2026-04-29 10:06 16.96061 72.33105 39798 ft 498 kts 298°
2026-04-29 10:07 16.99111 72.26592 39799 ft 499 kts 298°
2026-04-29 10:07 17.02138 72.20149 39799 ft 499 kts 298°
2026-04-29 10:08 17.05195 72.13651 39796 ft 499 kts 298°
2026-04-29 10:08 17.08244 72.07160 39799 ft 499 kts 298°
2026-04-29 10:09 17.11285 72.00766 39797 ft 500 kts 299°
2026-04-29 10:09 17.14385 71.94401 39796 ft 499 kts 299°
2026-04-29 10:10 17.17515 71.87938 39800 ft 499 kts 299°
2026-04-29 10:10 17.20614 71.81503 39799 ft 499 kts 299°
2026-04-29 10:11 17.23718 71.75041 39808 ft 499 kts 299°
2026-04-29 10:11 17.26824 71.68563 39816 ft 499 kts 299°
2026-04-29 10:12 17.29919 71.62103 39823 ft 499 kts 299°
2026-04-29 10:12 17.33036 71.55592 39820 ft 500 kts 299°
2026-04-29 10:13 17.36124 71.49129 39824 ft 498 kts 299°
2026-04-29 10:13 17.39118 71.42873 39821 ft 499 kts 299°
2026-04-29 10:14 17.42021 71.36799 39818 ft 499 kts 299°
2026-04-29 10:14 17.45119 71.30287 39817 ft 500 kts 298°
2026-04-29 10:15 17.48203 71.23785 39816 ft 500 kts 299°
2026-04-29 10:15 17.51297 71.17271 39814 ft 499 kts 299°
2026-04-29 10:16 17.54389 71.10766 39824 ft 499 kts 299°
2026-04-29 10:16 17.57477 71.04266 39816 ft 499 kts 299°
2026-04-29 10:17 17.60562 70.97765 39836 ft 500 kts 299°
2026-04-29 10:17 17.63642 70.91267 39813 ft 499 kts 299°
2026-04-29 10:18 17.66727 70.84753 39812 ft 500 kts 299°
2026-04-29 10:18 17.69814 70.78233 39819 ft 500 kts 299°
2026-04-29 10:19 17.72896 70.71709 39828 ft 501 kts 299°
2026-04-29 10:19 17.75972 70.65196 39798 ft 499 kts 299°
2026-04-29 10:20 17.78935 70.58913 39817 ft 499 kts 299°
2026-04-29 10:20 17.81913 70.52582 39818 ft 499 kts 299°
2026-04-29 10:21 17.84973 70.46066 39809 ft 499 kts 299°
2026-04-29 10:21 17.88026 70.39561 39820 ft 500 kts 298°
2026-04-29 10:22 17.91117 70.32964 39826 ft 501 kts 298°
2026-04-29 10:22 17.94173 70.26400 39835 ft 501 kts 298°
2026-04-29 10:23 17.97234 70.19839 39833 ft 502 kts 298°
2026-04-29 10:23 18.00324 70.13226 39835 ft 502 kts 298°
2026-04-29 10:24 18.03400 70.06639 39820 ft 502 kts 298°
2026-04-29 10:24 18.06473 70.00047 39821 ft 502 kts 298°
2026-04-29 10:25 18.09548 69.93449 39826 ft 503 kts 298°
2026-04-29 10:25 18.12621 69.86890 39821 ft 501 kts 298°
2026-04-29 10:26 18.15713 69.80296 39818 ft 501 kts 298°
2026-04-29 10:26 18.18776 69.73724 39818 ft 502 kts 298°
2026-04-29 10:27 18.23363 69.63837 39828 ft 502 kts 298°
2026-04-29 10:28 18.26400 69.57280 39817 ft 501 kts 298°
2026-04-29 10:28 18.29463 69.50655 39818 ft 501 kts 298°
2026-04-29 10:29 18.32487 69.44109 39817 ft 501 kts 298°
2026-04-29 10:29 18.35519 69.37537 39824 ft 501 kts 298°
2026-04-29 10:30 18.38555 69.30949 39822 ft 501 kts 298°
2026-04-29 10:30 18.41818 69.24456 39820 ft 501 kts 300°
2026-04-29 10:31 18.45121 69.18021 39824 ft 500 kts 300°
2026-04-29 10:31 18.48426 69.11578 39817 ft 499 kts 300°
2026-04-29 10:32 18.51695 69.05194 39827 ft 499 kts 300°
2026-04-29 10:32 18.54978 68.98777 39830 ft 499 kts 300°
2026-04-29 10:33 18.58273 68.92327 39833 ft 499 kts 300°
2026-04-29 10:33 18.61551 68.85903 39831 ft 499 kts 300°
2026-04-29 10:34 18.64840 68.79455 39837 ft 500 kts 300°
2026-04-29 10:34 18.68125 68.73004 39843 ft 500 kts 300°
2026-04-29 10:35 18.71399 68.66568 39839 ft 499 kts 300°
2026-04-29 10:35 18.74676 68.60120 39843 ft 500 kts 300°
2026-04-29 10:36 18.77950 68.53671 39826 ft 501 kts 300°
2026-04-29 10:36 18.81236 68.47193 39828 ft 500 kts 300°
2026-04-29 10:37 18.84504 68.40741 39832 ft 500 kts 300°